Time,TemperatureF,DewpointF,PressureIn,WindDirection,WindDirectionDegrees,WindSpeedMPH,WindSpeedGustMPH,Humidity,HourlyPrecipIn,Conditions,Clouds,dailyrainin,SoftwareType,DateUTC
2013-06-28 01:12:00,58.0,-99.9,-100.00,North,-999,-999.0,-999.0,-999,-99.99,,,0.00,,2013-06-28 07:12:00,
2013-06-28 01:22:00,58.0,-99.9,-100.00,North,-999,-999.0,-999.0,-999,-99.99,,,0.00,,2013-06-28 07:22:00,
2013-06-28 01:34:00,58.0,-99.9,-100.00,North,-999,-999.0,-999.0,-999,-99.99,,,0.00,,2013-06-28 07:34:00,
2013-06-28 01:43:00,58.0,-99.9,-100.00,North,-999,-999.0,-999.0,-999,-99.99,,,0.00,,2013-06-28 07:43:00,
2013-06-28 02:11:00,56.0,-99.9,-100.00,North,-999,-999.0,-999.0,-999,0.00,,,0.00,,2013-06-28 08:11:00,
2013-06-28 02:22:00,56.0,-99.9,-100.00,North,-999,-999.0,-999.0,-999,0.00,,,0.00,,2013-06-28 08:22:00,
2013-06-28 02:33:00,56.0,-99.9,-100.00,North,-999,-999.0,-999.0,-999,0.00,,,0.00,,2013-06-28 08:33:00,
2013-06-28 02:43:00,56.0,-99.9,-100.00,North,-999,-999.0,-999.0,-999,0.00,,,0.00,,2013-06-28 08:43:00,
2013-06-28 03:12:00,54.0,-99.9,-100.00,North,-999,-999.0,-999.0,-999,0.00,,,0.00,,2013-06-28 09:12:00,
2013-06-28 03:22:00,54.0,-99.9,-100.00,North,-999,-999.0,-999.0,-999,0.00,,,0.00,,2013-06-28 09:22:00,
2013-06-28 03:33:00,54.0,-99.9,-100.00,North,-999,-999.0,-999.0,-999,0.00,,,0.00,,2013-06-28 09:33:00,
2013-06-28 03:42:00,54.0,-99.9,-100.00,North,-999,-999.0,-999.0,-999,0.00,,,0.00,,2013-06-28 09:42:00,
2013-06-28 04:12:00,52.0,-99.9,-100.00,North,-999,-999.0,-999.0,-999,0.00,,,-99.99,,2013-06-28 10:12:00,
2013-06-28 04:22:00,52.0,-99.9,-100.00,North,-999,-999.0,-999.0,-999,0.00,,,-99.99,,2013-06-28 10:22:00,
2013-06-28 04:33:00,52.0,-99.9,-100.00,North,-999,-999.0,-999.0,-999,0.00,,,-99.99,,2013-06-28 10:33:00,
2013-06-28 04:42:00,52.0,-99.9,-100.00,North,-999,-999.0,-999.0,-999,0.00,,,-99.99,,2013-06-28 10:42:00,
2013-06-28 05:11:00,51.0,-99.9,-100.00,North,-999,-999.0,-999.0,-999,0.00,,,-99.99,,2013-06-28 11:11:00,
2013-06-28 05:22:00,51.0,-99.9,-100.00,North,-999,-999.0,-999.0,-999,0.00,,,-99.99,,2013-06-28 11:22:00,
2013-06-28 05:34:00,51.0,-99.9,-100.00,North,-999,-999.0,-999.0,-999,0.00,,,-99.99,,2013-06-28 11:34:00,
2013-06-28 05:43:00,51.0,-99.9,-100.00,North,-999,-999.0,-999.0,-999,0.00,,,-99.99,,2013-06-28 11:43:00,
2013-06-28 06:12:00,50.0,-99.9,-100.00,North,-999,-999.0,-999.0,-999,0.00,,,0.00,,2013-06-28 12:12:00,
2013-06-28 06:22:00,50.0,-99.9,-100.00,North,-999,-999.0,-999.0,-999,0.00,,,0.00,,2013-06-28 12:22:00,
2013-06-28 06:34:00,50.0,-99.9,-100.00,North,-999,-999.0,-999.0,-999,0.00,,,0.00,,2013-06-28 12:34:00,
2013-06-28 06:44:00,50.0,-99.9,-100.00,North,-999,-999.0,-999.0,-999,0.00,,,0.00,,2013-06-28 12:44:00,
2013-06-28 07:23:00,50.0,-99.9,-100.00,North,-999,-999.0,-999.0,-999,0.00,,,0.00,,2013-06-28 13:23:00,
2013-06-28 07:33:00,50.0,-99.9,-100.00,North,-999,-999.0,-999.0,-999,0.00,,,0.00,,2013-06-28 13:33:00,
2013-06-28 07:43:00,50.0,-99.9,-100.00,North,-999,-999.0,-999.0,-999,0.00,,,0.00,,2013-06-28 13:43:00,
2013-06-28 10:11:00,64.0,-99.9,-100.00,North,-999,-999.0,-999.0,-999,-99.99,,,-99.99,,2013-06-28 16:11:00,
2013-06-28 10:25:00,64.0,-99.9,-100.00,North,-999,-999.0,-999.0,-999,-99.99,,,-99.99,,2013-06-28 16:25:00,
2013-06-28 10:33:00,64.0,-99.9,-100.00,North,-999,-999.0,-999.0,-999,-99.99,,,-99.99,,2013-06-28 16:33:00,
2013-06-28 10:44:00,64.0,-99.9,-100.00,North,-999,-999.0,-999.0,-999,-99.99,,,-99.99,,2013-06-28 16:44:00,
2013-06-28 11:11:00,69.0,-99.9,-100.00,North,-999,-999.0,-999.0,-999,0.02,,,-99.99,,2013-06-28 17:11:00,
2013-06-28 11:22:00,69.0,-99.9,-100.00,North,-999,-999.0,-999.0,-999,0.02,,,-99.99,,2013-06-28 17:22:00,
2013-06-28 11:33:00,69.0,-99.9,-100.00,North,-999,-999.0,-999.0,-999,0.02,,,-99.99,,2013-06-28 17:33:00,
2013-06-28 11:44:00,69.0,-99.9,-100.00,North,-999,-999.0,-999.0,-999,0.02,,,-99.99,,2013-06-28 17:44:00,
2013-06-28 12:12:00,74.0,-99.9,-100.00,North,-999,-999.0,-999.0,-999,0.00,,,0.00,,2013-06-28 18:12:00,
2013-06-28 12:22:00,74.0,-99.9,-100.00,North,-999,-999.0,-999.0,-999,0.00,,,0.00,,2013-06-28 18:22:00,
2013-06-28 12:43:00,74.0,-99.9,-100.00,North,-999,-999.0,-999.0,-999,0.00,,,0.00,,2013-06-28 18:43:00,
2013-06-28 13:33:00,79.0,-99.9,-100.00,North,-999,-999.0,-999.0,-999,0.00,,,0.00,,2013-06-28 19:33:00,
2013-06-28 13:43:00,79.0,-99.9,-100.00,North,-999,-999.0,-999.0,-999,0.00,,,0.00,,2013-06-28 19:43:00,
2013-06-28 14:11:00,82.0,-99.9,-100.00,North,-999,-999.0,-999.0,-999,0.01,,,-99.99,,2013-06-28 20:11:00,
2013-06-28 14:22:00,82.0,-99.9,-100.00,North,-999,-999.0,-999.0,-999,0.01,,,-99.99,,2013-06-28 20:22:00,
2013-06-28 14:33:00,82.0,-99.9,-100.00,North,-999,-999.0,-999.0,-999,0.01,,,-99.99,,2013-06-28 20:33:00,
2013-06-28 14:44:00,82.0,-99.9,-100.00,North,-999,-999.0,-999.0,-999,0.01,,,-99.99,,2013-06-28 20:44:00,
2013-06-28 18:23:00,84.0,-99.9,-100.00,North,-999,-999.0,-999.0,-999,-99.99,,,0.00,,2013-06-29 00:23:00,
2013-06-28 18:34:00,84.0,-99.9,-100.00,North,-999,-999.0,-999.0,-999,-99.99,,,0.00,,2013-06-29 00:34:00,
2013-06-28 18:42:00,84.0,-99.9,-100.00,North,-999,-999.0,-999.0,-999,-99.99,,,0.00,,2013-06-29 00:42:00,
2013-06-28 19:11:00,82.0,-99.9,-100.00,North,-999,-999.0,-999.0,-999,0.00,,,-99.99,,2013-06-29 01:11:00,
2013-06-28 19:22:00,82.0,-99.9,-100.00,North,-999,-999.0,-999.0,-999,0.00,,,-99.99,,2013-06-29 01:22:00,
2013-06-28 19:32:00,82.0,-99.9,-100.00,North,-999,-999.0,-999.0,-999,0.00,,,-99.99,,2013-06-29 01:32:00,
2013-06-28 19:42:00,82.0,-99.9,-100.00,North,-999,-999.0,-999.0,-999,0.00,,,-99.99,,2013-06-29 01:42:00,
2013-06-28 20:11:00,80.0,-99.9,-100.00,North,-999,-999.0,-999.0,-999,0.00,,,0.01,,2013-06-29 02:11:00,
2013-06-28 20:21:00,80.0,-99.9,-100.00,North,-999,-999.0,-999.0,-999,0.00,,,0.01,,2013-06-29 02:21:00,
2013-06-28 20:31:00,80.0,-99.9,-100.00,North,-999,-999.0,-999.0,-999,0.00,,,0.01,,2013-06-29 02:31:00,
2013-06-28 20:41:00,80.0,-99.9,-100.00,North,-999,-999.0,-999.0,-999,0.00,,,0.01,,2013-06-29 02:41:00,
2013-06-28 21:11:00,75.0,-99.9,-100.00,North,-999,-999.0,-999.0,-999,-99.99,,,0.00,,2013-06-29 03:11:00,
2013-06-28 21:21:00,75.0,-99.9,-100.00,North,-999,-999.0,-999.0,-999,-99.99,,,0.00,,2013-06-29 03:21:00,
2013-06-28 21:32:00,75.0,-99.9,-100.00,North,-999,-999.0,-999.0,-999,-99.99,,,0.00,,2013-06-29 03:32:00,
2013-06-28 21:41:00,75.0,-99.9,-100.00,North,-999,-999.0,-999.0,-999,-99.99,,,0.00,,2013-06-29 03:41:00,
2013-06-28 22:11:00,69.0,-99.9,-100.00,North,-999,-999.0,-999.0,-999,0.00,,,0.01,,2013-06-29 04:11:00,
2013-06-28 22:26:00,69.0,-99.9,-100.00,North,-999,-999.0,-999.0,-999,0.00,,,0.01,,2013-06-29 04:26:00,
2013-06-28 22:32:00,69.0,-99.9,-100.00,North,-999,-999.0,-999.0,-999,0.00,,,0.01,,2013-06-29 04:32:00,
2013-06-28 22:41:00,69.0,-99.9,-100.00,North,-999,-999.0,-999.0,-999,0.00,,,0.01,,2013-06-29 04:41:00,
2013-06-28 23:31:00,65.0,-99.9,-100.00,North,-999,-999.0,-999.0,-999,-99.99,,,0.00,,2013-06-29 05:31:00,
2013-06-28 23:42:00,65.0,-99.9,-100.00,North,-999,-999.0,-999.0,-999,-99.99,,,0.00,,2013-06-29 05:42:00,